Location: Mountain Grove
(34.0887°N, 86.6172°W)
Time: 01:28:19
(UTC+00:00)

Nadezhda 4 Rocket - Visible Passes

Search period start: 24 October 2020 00:00
Search period end: 03 November 2020 00:00
Orbit: 949 x 993 km, 82.9° (Epoch: 23 October)

Date Brightness Start Highest point End Pass type
(mag) Time Alt. Az. Time Alt. Az. Time Alt. Az.
24 Oct 4.4 10:03:42 10° S 10:09:40 61° E 10:15:41 10° NNE visible
25 Oct 6.8 08:46:50 10° ESE 08:49:11 12° E 08:51:33 10° ENE visible
25 Oct 3.8 10:27:34 10° SSW 10:33:39 73° W 10:39:46 10° N visible
26 Oct 5.9 09:08:02 10° SE 09:12:49 25° E 09:17:38 10° NE visible
26 Oct 4.3 10:52:09 10° SSW 10:57:47 39° WNW 11:03:27 10° N visible
27 Oct 4.8 09:30:49 10° SSE 09:36:36 47° E 09:42:25 10° NNE visible
27 Oct 5.0 11:17:37 10° WSW 11:22:04 21° WNW 11:26:34 10° NNW visible
28 Oct 3.8 09:54:25 10° S 10:00:31 88° E 10:06:40 10° N visible
29 Oct 6.2 08:35:44 10° SE 08:39:50 19° E 08:43:57 10° NE visible
29 Oct 4.0 10:18:42 10° SSW 10:24:35 50° W 10:30:32 10° N visible
30 Oct 5.2 09:02:16 33° ESE 09:03:33 36° E 09:09:03 10° NNE visible
30 Oct 4.7 10:47:04 23° WSW 10:48:48 27° WNW 10:53:54 10° NNW visible
31 Oct 4.4 09:28:36 55° NE 09:28:36 55° NE 09:33:30 10° NNE visible
31 Oct 5.4 11:13:18 14° WNW 11:13:18 14° WNW 11:16:18 10° NW visible
01 Nov 6.7 08:09:25 11° NE 08:09:25 11° NE 08:09:58 10° NE visible
01 Nov 4.8 09:54:05 34° NNW 09:54:05 34° NNW 09:57:31 10° N visible
02 Nov 6.4 08:34:31 15° NE 08:34:31 15° NE 08:35:36 10° NNE visible
02 Nov 5.5 10:19:10 19° NNW 10:19:10 19° NNW 10:21:07 10° NNW visible
